User: anonymous   Login
Location: Skalnate Pleso
(49.1889°N, 20.2450°E)
Time: 06:05:00
(UTC+02:00)
Language:

Iridium 45 - Orbit

View from above orbital plane
View from above orbital plane
View from above satellite
View from above satellite

Ground track
Ground track

The orbit data is extracted from the following two-line orbital elements,

1 25104U 97082A   15116.46850453  .00000541  00000-0  18636-3 0  9994
2 25104 087.0263 250.6430 0002293 091.0822 269.0637 14.34228597908182
Epoch (UTC): 26 April 2015 11:14:38
Eccentricity: 0.0002293
inclination: 87.0263°
perigee height: 776 km
apogee height: 779 km
right ascension of ascending node: 250.6430°
argument of perigee: 91.0822°
revolutions per day: 14.34228597
mean anomaly at epoch: 269.0637°
orbit number at epoch: 90818

The dashed part of the orbit path shows where the satellite is in the earth's shadow,  

DLR